Wind_Speed
22 22 21 20 20 21 22 23 24 26 28 29 30 31 32 32 31 31 31 31 31 30 30 30 30 28 27 25 24 23 23 22 22 21 20 19 19 17 16 16 15 16 16 17 18 19 19 19 20 20 21 23 24 24 24 24 24 24 23 23 22 22 21 21 20 20 19 18 18 18 19 19 19 20 20 20 20 20 20 20 19 18 17 16 16 15
20 19 19 18 17 18 20 21 23 24 26 27 28 29 30 31 31 31 31 31 30 30 30 29 28 26 24 23 22 21 21 20 20 19 18 16 15 14 14 14 14 15 16 17 18 18 19 19 20 21 22 23 24 24 24 24 24 24 23 23 22 22 21 21 20 20 19 19 19 19 19 19 19 19 19 19 19 18 18 17 17 16 15 15 14 14
17 16 16 15 14 15 17 18 20 21 23 25 26 28 29 30 30 31 31 30 29 29 28 27 25 23 22 21 20 20 19 19 18 17 15 13 12 12 13 14 15 16 17 17 18 19 19 20 21 22 23 24 24 24 24 24 23 23 22 22 21 20 20 20 19 19 19 18 18 18 18 18 18 18 17 16 16 16 15 15 15 14 14 14 14 14
14 13 12 11 11 11 13 14 15 17 19 21 23 25 26 28 29 29 29 28 27 25 24 23 21 20 19 19 19 19 18 17 16 15 13 11 11 12 13 14 15 16 17 17 18 19 20 21 22 22 23 23 23 23 23 22 21 21 20 19 19 19 19 18 18 18 17 17 17 17 17 16 16 15 14 14 13 13 13 13 14 14 14 14 14 14
11 10 9 8 8 8 9 10 11 13 14 17 19 21 22 24 24 24 23 22 21 21 20 19 18 18 18 18 18 17 17 16 15 13 11 10 11 13 14 15 16 16 17 18 19 20 21 22 22 23 23 22 22 21 20 19 19 19 18 18 18 18 18 17 17 17 16 16 15 15 15 14 13 13 12 12 12 12 12 13 13 13 13 13 14 14
9 8 7 7 7 7 8 9 10 11 12 14 16 17 18 19 19 18 18 18 17 17 17 16 16 16 16 16 16 16 15 14 12 11 10 11 12 14 14 15 16 17 18 19 20 21 21 22 22 22 21 21 20 19 19 18 18 18 19 19 18 18 17 17 16 16 15 15 14 13 13 12 12 12 12 11 11 12 12 12 12 13 13 13 13 13
8 7 6 6 6 6 7 8 9 10 11 12 13 14 14 15 15 15 15 15 15 15 15 15 16 16 16 15 15 14 13 12 11 10 10 12 13 14 15 16 17 18 19 20 21 21 21 22 22 21 21 20 19 19 19 19 19 19 19 19 18 17 17 16 15 15 14 13 13 12 12 12 12 11 11 11 12 12 12 12 13 13 13 14 14 14
5 5 5 5 5 6 7 8 9 9 10 11 12 12 12 12 13 13 13 13 14 14 14 14 15 15 15 14 13 12 11 10 10 11 11 12 13 15 16 17 18 20 21 21 21 22 22 22 21 21 21 20 20 20 20 20 20 19 19 18 17 16 16 15 14 14 13 12 12 12 12 12 12 12 12 12 12 13 13 13 13 14 14 14 15 15
3 3 3 4 5 6 7 8 8 9 9 10 10 10 10 11 11 12 12 12 12 13 13 13 14 13 13 12 11 11 10 10 11 12 13 14 15 16 17 19 20 21 21 22 22 22 22 22 21 21 21 21 21 20 20 20 19 18 18 17 16 15 15 14 13 13 12 12 12 12 12 12 12 13 13 13 13 14 14 14 14 14 15 15 15 16
2 2 2 3 4 5 6 7 7 8 8 8 9 9 9 10 10 11 11 11 11 12 12 12 12 12 11 11 10 10 11 11 12 13 14 15 16 17 19 20 21 22 22 22 22 21 21 21 21 21 20 20 20 19 19 18 18 17 16 16 15 15 14 13 13 12 12 12 12 12 13 13 13 14 14 14 15 15 15 15 15 15 16 16 16 16
3 2 2 3 4 4 5 6 7 7 8 8 9 9 10 10 11 11 11 11 11 11 11 11 11 11 11 11 11 11 12 13 14 15 16 17 18 19 20 21 22 23 23 23 22 21 20 20 20 19 19 19 18 18 17 17 16 16 15 15 14 14 13 13 13 13 13 13 13 13 14 14 14 15 15 16 16 16 16 16 16 17 17 17 17 17
4 4 4 4 4 5 6 7 8 8 9 9 9 10 10 10 10 11 10 10 10 10 10 10 10 11 11 12 12 12 13 14 15 16 17 18 19 20 21 22 23 23 23 23 22 20 19 19 19 19 18 18 18 17 17 16 16 15 15 14 14 14 14 13 13 13 13 14 14 14 15 15 16 16 16 17 17 17 17 17 18 18 18 18 18 18
6 6 6 6 6 7 7 8 9 10 10 10 9 8 8 9 9 10 10 10 10 10 10 10 11 11 12 13 13 14 15 15 16 17 18 19 20 20 21 22 22 23 23 22 21 20 19 19 18 18 18 17 17 16 16 15 15 15 15 14 14 14 14 14 14 14 14 15 15 15 16 16 17 17 17 18 18 18 18 18 19 18 19 18 18 18
8 8 8 8 8 8 9 9 9 9 10 9 9 9 9 9 9 9 10 10 10 11 11 11 12 13 13 14 14 15 16 17 18 19 20 20 20 20 21 22 22 22 22 21 20 19 18 18 18 18 17 17 16 16 15 15 15 15 15 15 15 15 15 15 15 15 15 16 16 16 17 17 18 18 18 18 19 19 19 19 19 19 19 19 19 19
9 9 9 8 8 8 9 9 9 9 9 10 10 10 10 10 10 10 10 11 12 12 12 12 13 14 14 15 15 16 17 18 20 21 21 21 21 20 20 21 21 21 20 19 18 18 18 18 18 17 17 16 16 15 15 15 15 15 15 15 15 15 15 15 16 16 16 17 17 17 18 18 18 19 19 19 19 19 19 19 19 19 19 19 19 19
10 9 9 8 8 8 9 9 9 9 9 10 10 10 10 10 11 11 12 12 13 13 13 13 14 15 16 16 17 17 18 19 20 22 22 22 20 19 19 20 20 19 18 17 17 17 18 18 17 17 16 16 15 15 14 14 15 15 15 15 16 16 16 16 17 17 17 18 18 18 19 19 19 20 20 20 20 20 20 20 20 20 19 19 19 20
9 9 8 8 8 8 9 9 9 9 10 10 10 11 11 11 12 12 13 13 13 14 14 14 15 16 16 17 18 18 18 19 21 23 23 22 20 18 17 18 18 17 16 15 16 16 17 17 17 16 16 15 15 15 14 15 15 15 15 16 16 16 17 17 18 18 18 19 19 19 20 20 20 20 21 21 21 21 20 20 20 20 20 20 20 20
8 8 8 8 8 9 9 9 9 10 10 11 11 11 12 12 13 13 13 14 14 15 15 16 17 18 18 18 19 20 19 20 22 24 24 23 19 16 15 16 16 16 15 14 15 16 16 16 16 16 15 15 15 15 15 15 15 16 16 16 17 17 18 18 19 19 20 20 20 21 21 21 21 21 21 21 21 21 21 21 21 21 21 21 21 21
8 8 8 8 8 9 9 10 10 10 11 11 12 12 13 13 14 14 15 15 16 16 17 17 18 19 20 21 22 22 21 22 23 24 24 22 18 14 13 14 15 15 14 14 14 15 16 16 15 15 15 15 15 15 15 16 16 16 17 17 18 18 19 19 20 20 20 21 21 21 21 22 22 22 22 22 22 22 22 22 22 22 22 22 22 22
8 8 8 8 9 9 10 10 11 11 11 12 12 13 14 14 15 15 16 16 17 18 18 19 20 21 22 23 23 23 23 23 24 24 24 21 16 12 11 13 14 14 13 13 14 15 15 15 15 15 15 15 15 16 16 16 17 17 18 18 19 19 20 20 20 21 21 21 21 22 22 22 22 23 23 23 23 23 23 23 23 23 23 23 24 24
10 10 10 10 10 11 11 12 12 12 12 12 13 14 15 15 16 17 17 18 18 19 20 21 21 23 23 24 25 24 23 23 24 24 23 20 15 11 10 12 13 13 13 13 14 15 15 15 15 15 15 15 16 16 17 17 18 18 18 19 19 20 20 20 20 21 21 21 22 22 22 23 23 23 23 24 24 24 24 24 24 24 24 24 25 25
11 11 12 12 12 12 12 13 13 13 13 13 14 15 16 16 17 18 19 19 20 21 22 23 24 24 25 25 24 23 22 22 22 22 22 19 14 10 9 12 13 13 13 13 14 15 16 15 15 15 15 16 16 17 17 18 18 18 19 19 19 20 20 20 20 20 21 21 22 22 23 23 23 24 24 24 24 25 25 25 25 25 25 26 26 26
13 13 14 14 14 14 14 14 14 14 15 15 16 17 17 18 18 19 20 21 22 23 24 25 25 25 24 23 22 21 20 20 20 20 20 19 16 11 10 11 13 13 13 13 14 15 16 16 15 15 15 16 17 17 18 18 18 19 19 19 19 19 19 20 20 20 21 22 22 23 23 24 24 24 25 25 25 25 26 26 26 26 26 26 27 27
15 15 15 15 16 16 15 15 15 16 17 17 17 18 19 19 20 21 22 22 23 24 25 25 25 24 23 22 20 19 18 18 18 19 19 19 17 14 11 12 13 13 13 14 15 16 16 16 15 15 15 16 17 18 18 18 19 19 19 19 19 19 19 20 20 21 21 22 23 23 24 24 25 25 25 26 26 26 26 26 27 27 27 27 27 28
16 16 16 16 16 16 15 15 16 17 17 18 18 18 19 20 20 21 22 22 23 23 24 23 23 22 20 19 17 16 15 16 17 17 18 18 17 15 12 12 13 14 14 14 15 15 16 15 15 15 15 17 18 18 18 18 18 18 19 19 19 19 19 20 20 21 22 22 23 24 24 25 25 25 26 26 26 26 27 27 27 27 28 28 28 28
17 17 16 16 16 15 15 16 16 16 17 17 18 18 19 19 20 20 20 21 21 20 21 20 20 18 17 16 15 14 13 14 15 16 17 18 17 16 13 13 14 14 14 14 14 14 15 15 15 15 16 17 18 18 18 18 18 18 18 19 19 19 20 20 21 21 22 22 23 24 24 25 25 26 26 26 27 27 27 27 28 28 28 29 29 29
17 17 17 17 17 17 17 17 16 16 17 17 17 18 18 19 19 19 19 19 18 18 18 18 18 17 15 14 14 13 12 12 13 15 16 17 17 16 14 13 14 14 14 14 14 14 15 15 15 15 16 17 18 18 18 18 18 18 18 18 19 19 20 20 21 21 22 22 23 23 24 25 25 26 26 26 27 27 27 28 28 28 29 29 30 31
17 17 17 18 18 18 18 18 18 18 18 17 16 16 18 19 19 19 19 19 18 18 19 18 18 18 16 15 14 12 11 11 12 14 15 16 16 15 14 14 14 15 15 15 14 14 15 15 15 16 16 17 18 18 18 18 18 18 18 18 19 19 20 20 21 21 22 22 23 23 24 25 25 26 26 27 27 27 28 28 28 29 29 30 31 32
17 17 18 18 19 19 19 19 18 18 18 17 17 18 20 20 20 20 19 19 19 19 19 19 18 18 17 16 15 13 11 11 12 13 13 14 14 15 15 14 15 15 16 16 16 15 15 15 15 16 16 17 17 17 17 17 17 17 18 18 18 19 19 20 21 21 22 22 23 23 24 24 25 25 26 26 27 27 28 28 28 29 29 31 32 32
17 17 18 19 19 19 19 18 18 17 17 17 17 18 19 20 20 19 19 19 19 19 19 18 18 17 17 17 16 15 12 10 10 11 12 13 14 15 15 15 15 16 17 17 18 17 16 15 15 15 15 16 16 16 16 16 17 17 17 18 18 19 20 20 21 21 22 22 23 23 23 24 24 25 25 26 26 27 27 27 27 28 29 31 32 32
17 18 18 19 19 19 19 18 17 17 16 16 16 17 17 18 18 18 18 18 18 18 17 17 16 16 16 17 17 17 15 11 11 11 12 14 16 16 16 16 16 16 17 18 19 20 19 18 16 15 15 15 15 15 16 16 16 17 18 18 19 19 20 21 21 22 22 22 23 23 23 24 24 24 24 25 25 25 26 26 26 27 29 30 31 32
17 18 18 18 19 18 18 17 17 16 15 15 15 15 16 16 16 16 16 16 16 16 16 16 16 15 16 16 17 18 17 14 13 13 14 15 17 17 17 17 17 17 17 17 19 19 19 21 20 18 16 16 16 16 16 16 17 18 18 19 19 20 20 21 22 22 23 23 23 24 24 24 24 24 24 24 24 24 24 25 25 26 28 29 30 31
17 17 18 18 18 18 17 17 16 16 15 15 15 15 15 15 15 15 15 15 15 15 15 15 15 15 16 17 17 17 16 15 13 13 14 16 17 17 17 17 18 18 18 18 19 20 20 23 23 21 19 18 17 16 17 17 18 19 20 20 21 21 21 22 22 23 24 24 24 24 24 24 24 24 24 24 23 23 24 24 24 25 26 27 28 29
15 16 17 17 17 17 16 16 16 15 15 14 14 14 14 14 14 14 14 14 14 14 14 15 15 16 17 17 18 18 17 15 13 14 15 16 17 18 18 18 18 19 19 20 20 21 23 24 24 24 23 21 19 18 19 19 20 21 21 22 22 22 22 23 23 24 25 25 25 25 25 25 25 25 25 24 24 24 24 24 24 24 25 26 27 27
14 15 15 16 16 16 15 15 15 15 14 14 14 14 13 13 13 13 13 13 13 13 14 14 15 16 17 18 18 19 17 15 14 14 15 16 18 19 19 19 19 19 20 21 21 22 24 24 25 26 26 25 23 22 21 22 22 23 23 23 24 24 24 24 24 25 25 26 26 26 25 25 25 25 25 25 25 25 25 24 24 24 24 25 25 26
13 14 14 14 15 15 14 14 14 14 14 14 13 13 13 12 12 12 12 12 13 13 14 15 15 16 17 17 18 18 18 16 15 15 16 17 18 19 20 20 20 20 21 22 22 23 24 25 26 26 27 28 28 27 25 25 25 25 25 25 25 25 25 25 26 26 26 26 25 24 24 24 24 24 24 24 24 25 25 25 25 24 24 24 24 25
13 13 13 14 14 14 14 14 14 14 13 13 13 12 12 12 12 12 12 12 13 13 14 15 16 16 17 17 18 18 17 16 16 16 16 17 18 19 20 21 20 21 21 22 23 23 24 25 26 27 28 29 29 29 29 28 28 28 28 28 28 28 28 27 27 27 26 25 24 23 23 22 22 22 22 22 23 23 24 24 24 24 24 24 24 24
13 13 13 13 13 13 13 13 13 13 13 13 12 12 11 11 11 11 12 12 13 14 14 15 16 16 17 17 18 18 17 17 17 17 17 18 19 20 20 21 21 21 21 22 22 22 23 24 26 27 28 29 29 30 30 30 30 30 31 31 31 31 30 30 29 28 27 26 25 23 22 20 20 19 20 20 20 21 22 22 23 23 23 23 24 24
13 13 13 13 13 13 13 13 13 12 12 12 11 11 11 11 11 11 12 13 13 14 14 15 15 16 17 17 18 18 18 18 18 18 19 19 19 20 21 21 22 22 21 22 22 22 22 23 25 26 28 29 30 30 30 31 31 32 33 33 33 33 32 31 31 30 28 27 25 23 21 19 18 18 18 18 19 19 20 20 21 21 21 22 24 25
13 13 13 13 13 13 13 12 12 12 11 11 11 11 11 11 12 12 13 13 14 14 15 15 16 16 16 16 17 17 17 18 18 18 19 19 20 20 20 21 21 21 21 21 21 21 21 22 24 25 27 28 30 31 31 31 32 32 33 34 35 34 33 32 31 30 28 27 25 23 21 20 18 18 17 18 18 19 19 20 20 21 21 22 23 24
12 12 13 13 13 12 12 12 12 11 11 11 11 11 11 12 12 13 13 13 14 14 15 16 16 16 16 16 16 17 17 17 18 18 18 18 19 19 19 20 20 20 20 20 21 21 21 22 23 25 26 27 29 30 31 32 32 32 33 34 35 35 34 32 30 29 27 26 24 23 22 21 19 19 19 19 19 20 20 21 21 22 22 23 24 24
12 12 13 12 12 12 12 12 12 12 11 11 11 12 12 13 13 13 13 14 14 14 15 16 17 17 17 16 16 16 17 17 17 17 17 17 17 17 18 18 19 19 19 20 20 21 22 22 23 24 25 27 28 30 32 33 33 33 33 33 34 34 33 31 29 27 26 25 24 23 22 21 21 21 21 21 21 21 21 22 22 23 23 24 24 25
12 12 12 12 12 12 12 12 12 12 12 12 12 12 13 13 14 14 14 14 14 15 16 16 17 17 17 16 16 15 15 15 15 15 15 15 15 16 16 17 18 18 19 19 20 21 22 23 24 25 26 26 28 30 32 34 34 33 33 32 32 32 33 31 28 26 25 24 23 22 22 22 23 23 23 24 24 24 24 24 24 24 25 25 25 26
12 12 12 12 12 12 12 12 12 12 12 12 12 13 13 14 14 14 15 15 15 16 16 17 17 17 17 17 16 14 13 13 13 13 13 14 15 15 16 16 17 18 19 19 20 22 23 24 25 25 26 26 28 30 32 33 33 33 32 31 30 30 30 29 27 25 25 24 24 23 23 23 24 25 26 26 27 27 27 27 27 27 26 26 26 26
12 12 12 12 12 12 12 13 12 12 12 12 13 13 14 14 15 15 16 16 16 17 17 17 17 18 17 16 15 14 13 12 12 12 13 14 15 15 16 16 17 18 19 20 21 22 23 24 25 26 26 26 27 29 30 31 32 31 30 29 28 28 28 27 26 25 25 25 25 25 24 25 25 26 28 29 29 29 29 29 29 29 28 28 28 27
12 12 12 12 12 13 13 12 12 13 13 13 13 13 14 15 15 16 16 17 17 17 17 17 17 18 17 16 14 13 13 13 12 12 13 13 14 15 16 16 17 18 19 20 21 22 23 23 24 24 25 26 27 28 29 29 30 30 29 28 27 27 27 27 26 26 26 26 26 26 26 26 27 28 29 30 31 31 31 31 31 30 30 29 29 28
12 12 12 12 13 13 12 12 13 13 13 13 13 14 15 15 16 16 17 17 17 17 17 17 17 17 16 15 15 14 15 15 14 14 14 14 15 16 16 17 18 19 19 20 21 21 22 22 22 22 23 25 27 28 28 28 28 28 28 27 27 27 27 28 27 27 27 27 28 27 27 27 28 29 31 32 33 33 33 32 32 31 31 30 30 29
12 12 12 12 13 13 13 13 13 13 13 14 14 15 15 16 16 17 17 17 17 17 17 17 17 16 16 15 16 16 17 17 17 17 17 17 18 18 18 18 19 19 19 20 20 20 20 20 20 21 22 23 26 27 28 27 26 26 26 26 27 27 28 29 29 28 28 28 28 28 28 29 29 31 32 33 35 35 35 34 33 32 31 30 30 29
12 12 12 12 13 13 13 13 13 14 14 15 15 15 15 16 16 17 17 16 17 17 17 17 16 16 16 16 17 17 18 19 19 20 20 20 20 20 20 20 19 19 19 19 19 19 20 21 21 21 22 22 23 25 26 25 25 25 25 26 27 28 29 30 30 29 29 29 29 29 29 30 30 31 32 34 36 37 37 36 35 33 31 30 29 29
12 12 12 13 13 13 13 13 14 14 15 15 15 15 15 16 16 16 16 16 16 16 16 16 17 17 17 18 18 19 20 20 21 21 22 22 21 21 20 20 20 19 19 20 20 21 22 23 23 23 22 21 21 22 23 24 25 25 26 27 28 28 29 30 30 30 30 30 30 30 31 31 31 31 32 33 35 37 38 37 36 34 32 30 29 29
12 13 13 13 13 13 13 14 14 15 15 16 16 16 15 15 15 15 15 15 16 16 16 17 18 18 19 19 20 20 21 22 22 23 23 22 21 20 19 19 19 19 19 20 21 22 22 24 24 24 23 20 19 19 20 22 24 25 27 28 28 28 29 30 30 30 30 30 31 32 32 32 32 32 32 32 33 35 37 37 36 34 32 31 30 29
Wind_Direction
302 306 307 307 301 291 279 269 261 254 251 250 250 251 252 252 252 252 252 254 256 260 265 268 270 271 271 271 271 270 269 267 264 262 259 258 259 261 264 267 270 271 271 272 273 274 276 278 279 279 279 278 277 278 278 278 277 277 276 276 276 275 274 273 272 271 269 267 265 264 263 262 262 262 262 262 261 262 263 265 266 268 268 268 268 268
304 309 310 307 301 289 275 266 258 253 250 249 250 251 253 253 254 254 255 258 261 265 268 269 270 269 269 269 268 266 264 261 258 255 254 255 258 263 267 269 269 269 270 270 272 274 276 277 278 278 277 277 277 277 277 276 275 274 274 274 274 273 272 272 271 270 268 266 264 262 262 261 262 262 263 264 265 265 266 267 268 269 269 269 268 269
305 311 311 308 301 289 276 266 261 257 254 252 253 254 256 257 258 258 260 262 264 266 267 266 266 265 265 265 264 262 259 255 252 251 253 257 263 267 268 267 266 266 267 269 271 274 276 277 277 277 277 276 276 275 274 273 273 273 273 273 273 272 272 271 271 270 269 267 265 264 263 263 264 265 266 267 267 267 267 267 267 267 266 265 265 265
306 310 309 306 300 290 280 271 266 263 261 259 259 259 259 259 260 261 262 263 263 263 262 261 261 261 261 261 260 257 254 252 251 253 257 263 266 267 265 263 263 264 267 270 272 275 276 277 277 277 276 275 274 273 272 272 272 272 272 272 271 271 271 271 271 270 270 269 268 268 268 269 270 271 271 270 268 266 264 263 263 263 262 262 262 262
306 307 303 299 291 283 278 273 268 265 262 261 260 259 259 258 259 259 259 259 258 257 257 257 257 257 257 256 255 254 253 253 255 259 262 264 264 262 262 262 263 265 268 272 274 276 277 278 278 277 276 274 272 271 270 270 269 268 268 268 268 268 268 269 270 270 271 272 273 273 273 274 275 275 274 272 269 266 264 263 262 262 262 262 262 262
302 299 293 285 278 274 271 266 262 259 257 256 254 254 254 253 253 253 252 252 252 252 252 252 252 252 252 252 252 254 256 260 264 267 267 264 262 262 263 264 266 268 271 274 276 278 278 278 277 276 273 271 269 267 265 264 263 263 263 264 265 267 268 270 272 274 276 277 277 277 277 277 276 275 273 271 269 267 266 265 264 264 264 264 264 263
297 290 280 272 267 266 263 258 255 252 250 249 248 248 248 248 248 249 249 249 249 248 249 249 249 250 251 252 255 259 263 268 272 272 270 267 265 265 266 267 269 272 274 276 277 279 279 278 276 273 269 266 263 261 260 259 259 260 262 264 267 270 273 275 277 279 280 280 279 279 277 276 275 273 272 270 269 267 267 267 267 267 268 268 268 267
293 283 272 261 257 256 254 251 248 247 246 245 246 246 247 248 249 249 250 250 250 249 250 251 252 254 255 258 262 266 271 275 276 275 272 270 269 268 269 270 272 274 276 278 279 279 279 277 274 269 265 262 260 259 259 260 262 264 267 271 274 277 279 281 281 281 281 280 278 277 276 275 274 273 272 271 271 270 270 270 270 271 272 272 272 271
285 274 263 254 249 248 248 248 248 247 246 246 246 247 248 249 250 251 251 252 253 254 254 255 257 259 261 264 268 272 276 277 276 275 273 272 271 271 272 273 275 277 278 279 280 279 278 275 272 268 264 262 262 263 264 267 269 272 275 277 279 281 281 281 281 280 279 277 277 276 275 275 275 274 274 274 274 274 274 274 274 273 274 274 274 274
288 269 253 250 247 245 244 246 249 250 250 249 250 251 251 251 252 254 254 255 257 259 260 260 262 264 267 270 273 275 277 276 275 273 273 273 273 274 276 277 279 280 280 280 280 279 277 274 270 268 266 265 266 268 270 272 274 276 278 280 280 280 280 279 279 278 277 277 276 276 276 276 277 277 277 277 277 277 277 277 276 276 275 275 275 275
317 302 282 265 260 258 252 252 255 257 259 258 259 259 259 258 258 258 258 259 260 262 264 266 269 272 275 276 275 275 275 274 273 273 273 274 275 277 280 282 283 283 283 282 281 279 275 272 268 266 265 266 267 270 272 274 276 277 278 279 279 278 278 278 277 277 277 278 278 278 279 279 280 280 280 280 281 281 280 279 278 278 276 275 275 274
323 313 303 290 280 273 268 265 266 268 268 268 268 267 267 267 265 264 264 266 267 268 270 272 275 276 277 277 276 275 274 273 273 274 274 276 277 280 282 284 285 285 284 283 281 277 273 269 266 264 264 265 267 270 272 275 276 277 277 277 277 276 277 277 278 278 279 280 281 281 282 282 283 283 283 283 283 282 281 280 279 278 276 275 273 272
316 310 304 297 290 282 277 274 274 275 276 276 275 274 274 273 271 270 271 273 275 276 276 275 274 274 274 274 275 275 274 274 273 274 275 276 279 281 283 284 284 283 283 281 279 275 270 266 263 262 263 265 268 270 273 275 275 276 275 275 276 276 277 278 279 280 281 282 283 284 284 284 285 284 284 284 283 282 281 279 278 277 275 274 273 272
311 307 303 297 292 287 284 281 281 281 281 281 279 277 274 273 273 274 276 276 276 275 275 273 272 271 271 271 272 273 274 274 274 274 275 277 279 282 283 283 282 280 278 277 274 271 267 264 263 263 264 266 269 271 272 273 273 273 273 274 275 277 278 279 281 282 283 284 284 285 285 285 285 284 284 283 282 281 280 278 277 276 275 274 273 273
305 304 301 295 290 286 283 281 280 279 278 278 278 275 273 272 271 271 271 272 271 271 271 270 270 271 272 271 272 272 274 275 276 277 277 278 280 283 284 283 280 277 275 272 269 266 264 263 263 264 265 267 269 270 270 270 270 271 272 274 275 277 279 280 282 283 283 284 284 284 284 284 284 283 283 282 281 280 279 278 277 276 276 275 275 274
301 299 295 290 284 279 277 275 272 270 269 270 270 269 268 267 266 266 265 266 267 268 269 269 271 273 274 273 273 273 275 277 279 279 280 281 282 284 285 282 279 275 271 268 265 263 262 262 262 264 265 267 268 269 268 268 269 270 272 274 276 278 280 281 282 283 284 284 284 283 283 282 282 281 281 280 279 279 278 278 278 277 277 276 276 276
296 294 290 285 278 273 273 271 269 265 264 264 264 263 263 263 264 264 264 266 267 269 270 272 274 276 277 278 277 277 278 281 282 283 283 284 285 286 285 280 276 272 268 264 262 260 260 260 262 263 264 265 266 266 266 267 268 270 272 274 277 279 280 282 282 283 283 282 282 281 281 280 279 279 279 279 279 279 279 279 279 278 278 278 278 277
290 289 286 282 277 273 273 271 269 266 264 262 261 262 263 263 264 265 266 267 269 271 273 275 276 277 279 280 281 282 284 284 285 286 286 286 286 286 282 276 271 268 264 261 259 258 258 259 260 261 262 263 264 264 265 266 268 270 272 274 276 278 279 280 280 280 280 280 279 279 279 279 279 279 279 279 279 279 279 279 279 279 279 279 279 279
286 284 283 279 277 274 272 270 267 266 264 263 262 263 263 265 266 267 268 269 271 272 274 276 277 278 280 281 282 285 288 288 288 288 288 286 285 284 279 271 266 263 260 257 255 255 256 257 259 260 261 261 262 263 264 266 267 270 271 273 275 276 277 277 278 278 278 278 278 279 279 279 279 280 280 280 280 280 280 280 280 279 279 279 279 279
282 280 277 275 275 273 271 269 267 266 264 264 265 266 266 267 269 269 270 271 272 273 274 275 277 278 280 282 284 286 290 291 290 289 288 286 284 280 273 265 261 259 256 253 252 253 254 255 257 258 259 260 261 262 263 265 267 269 270 272 273 275 276 277 277 278 279 279 279 280 280 280 280 281 281 281 281 280 280 280 280 280 280 279 279 279
280 279 278 278 278 276 274 274 272 268 265 265 265 267 268 269 269 270 270 271 272 273 274 275 276 277 280 282 285 288 291 292 291 290 288 285 281 275 267 261 258 256 252 250 250 251 253 254 255 257 258 259 260 261 262 264 266 268 270 272 273 275 277 278 279 280 280 280 280 280 280 281 280 280 280 280 280 280 280 280 280 280 280 279 279 279
285 286 286 287 286 285 283 281 279 277 273 269 267 267 268 268 269 270 271 272 273 274 274 275 277 279 282 284 286 289 291 290 289 289 287 284 278 270 264 259 257 255 251 248 248 250 252 253 254 256 257 258 259 260 262 263 266 268 270 273 275 277 279 280 280 281 280 280 280 280 280 280 280 280 280 280 280 280 280 280 279 279 279 279 279 279
295 295 296 297 297 297 296 293 290 287 283 278 274 272 271 272 272 272 273 274 275 276 277 279 280 282 284 286 288 289 290 289 287 286 285 282 277 270 263 260 258 256 253 248 247 249 251 253 253 254 255 256 258 260 262 264 267 270 272 275 277 279 280 280 280 279 280 279 279 279 279 280 279 279 280 279 279 279 279 279 279 278 278 278 278 278
300 300 301 302 303 302 301 297 293 291 289 286 283 281 279 278 277 276 276 277 277 278 279 281 282 283 285 287 288 288 288 286 285 283 282 280 276 272 267 264 262 259 255 251 249 249 250 251 251 252 253 255 258 260 263 266 269 272 274 276 277 278 278 278 278 278 278 278 279 279 279 279 279 279 279 279 279 279 278 278 278 277 277 277 277 277
298 298 298 298 299 298 296 292 289 289 289 288 286 285 284 283 281 280 280 279 279 279 281 282 283 284 286 286 286 286 285 283 281 281 280 279 277 275 273 270 267 262 257 252 250 250 250 249 248 249 252 255 259 262 265 268 270 273 275 276 276 276 276 276 276 276 277 277 278 278 279 279 279 279 279 278 278 278 277 277 276 276 276 276 276 276
293 292 292 291 290 288 285 284 285 286 286 286 287 287 286 285 283 282 281 281 282 283 284 286 287 288 288 287 285 283 281 279 278 278 279 279 279 278 277 274 270 265 260 254 251 251 250 248 247 247 251 255 260 263 266 268 271 272 273 274 274 275 275 275 276 276 277 278 278 279 279 279 279 279 278 278 277 277 276 276 276 275 275 275 275 275
286 285 284 284 282 281 279 279 279 278 279 281 285 288 287 286 285 284 284 286 288 290 291 293 294 294 293 290 286 283 279 278 277 277 277 278 279 280 280 276 272 268 264 258 253 252 252 250 249 250 252 256 260 264 266 269 270 272 273 273 274 274 275 276 277 278 279 280 280 281 281 280 280 279 278 277 277 276 275 275 275 275 275 275 275 275
281 280 280 279 278 277 276 275 275 274 274 275 276 277 278 280 281 282 285 289 292 293 293 295 297 298 298 295 290 284 281 282 280 277 277 279 280 280 280 278 275 274 272 267 260 255 254 254 254 254 255 258 261 264 267 269 271 272 273 274 275 276 278 279 281 282 283 283 284 283 283 282 281 280 278 277 276 275 275 274 274 274 273 274 274 274
277 277 276 276 275 275 274 275 274 274 274 273 271 270 271 275 278 281 285 289 291 291 291 293 296 297 298 296 291 286 286 288 284 280 280 281 281 281 281 281 282 282 282 279 271 263 258 257 257 257 258 260 262 265 268 270 272 273 275 277 279 280 282 283 284 285 285 286 285 285 284 283 281 280 278 277 276 275 274 273 273 273 272 273 273 274
275 275 275 275 275 276 276 277 277 277 276 275 273 271 272 275 278 280 284 286 286 287 288 291 293 294 295 295 293 291 293 293 289 287 287 286 284 284 284 286 288 289 290 290 287 279 270 263 260 260 261 263 265 267 270 272 274 276 278 280 282 283 285 285 286 286 286 286 286 286 285 284 283 281 279 278 276 275 274 273 272 272 272 272 273 274
275 274 274 275 276 277 279 280 280 280 279 277 275 274 273 275 277 278 280 281 282 284 285 287 288 290 291 293 292 293 295 297 297 295 292 288 287 287 288 289 290 292 294 296 297 294 287 280 273 269 270 271 271 272 273 274 277 279 281 282 283 285 286 286 287 287 287 287 287 287 287 286 285 283 282 280 278 276 274 273 272 272 272 272 273 274
274 274 275 276 277 278 280 281 282 282 281 279 277 276 274 274 275 277 278 279 280 282 283 284 285 286 287 288 289 290 294 297 299 298 294 290 288 288 290 291 292 293 294 295 296 297 295 291 287 282 280 280 278 277 276 278 279 282 283 285 286 287 288 289 289 290 290 289 289 289 288 288 287 285 284 282 280 277 276 274 273 272 272 273 273 274
273 274 275 276 277 278 279 280 281 281 281 280 279 277 276 276 276 276 277 278 279 280 281 282 283 285 287 288 289 291 294 298 300 298 293 290 289 289 291 292 293 293 294 294 293 293 293 292 291 289 286 284 282 281 281 283 285 287 288 290 291 291 291 292 292 292 292 291 291 290 289 288 287 286 284 282 280 278 276 275 273 272 272 272 273 274
271 272 273 274 275 276 278 279 280 281 280 280 279 279 278 278 277 277 277 277 278 280 281 283 285 286 287 288 290 293 296 300 300 297 294 291 291 291 292 293 294 294 295 295 294 293 293 293 294 294 293 289 287 287 288 290 292 293 293 294 295 295 294 294 294 294 293 293 292 291 289 288 286 285 283 281 279 278 276 274 272 271 271 272 273 274
272 271 271 272 273 274 276 277 279 280 281 281 280 280 280 279 279 279 278 279 280 282 284 286 287 288 289 290 291 293 297 300 299 297 295 293 293 294 294 295 296 297 297 296 297 297 297 296 297 298 299 297 295 294 296 297 297 297 297 297 297 297 296 296 296 295 295 294 293 292 290 288 286 284 282 280 279 277 275 273 272 271 271 271 272 273
277 275 273 272 273 274 275 276 278 279 280 280 281 281 280 280 279 279 280 281 283 284 286 288 289 290 290 291 292 295 297 299 298 297 296 296 296 296 296 296 297 298 298 298 298 298 298 298 299 299 301 301 301 301 302 302 302 301 300 299 298 298 298 298 298 298 298 297 296 295 293 291 288 285 283 281 279 277 275 274 272 272 271 271 271 272
281 278 276 275 275 275 276 276 277 278 279 279 280 279 279 279 279 280 281 282 284 285 286 287 288 289 290 291 293 295 298 299 299 299 298 299 298 297 297 297 298 298 298 297 298 298 298 299 300 300 301 301 302 303 305 305 304 303 302 302 301 301 301 302 302 303 303 303 302 300 298 295 292 288 285 282 280 277 275 274 273 272 272 271 271 271
281 279 277 276 276 276 277 277 277 278 278 279 278 278 277 277 278 279 280 281 282 284 285 286 287 289 290 292 294 297 299 301 302 302 301 301 299 298 298 298 298 298 298 297 296 297 297 297 298 299 300 300 301 303 304 305 305 305 304 304 304 305 306 307 308 309 309 308 307 305 303 300 296 292 288 284 281 278 276 275 274 273 272 271 270 269
280 277 276 276 276 276 277 277 278 278 278 277 276 275 274 274 275 276 277 279 281 282 283 284 286 287 289 291 294 297 299 301 302 302 301 301 299 298 297 297 297 297 297 296 295 295 294 295 295 296 298 299 301 302 303 304 305 305 305 306 306 307 309 311 312 312 312 312 311 309 307 304 301 296 292 288 285 282 280 278 277 275 275 274 273 271
279 277 276 275 276 276 277 277 277 276 275 273 272 270 270 271 272 273 276 278 279 281 283 284 285 287 289 291 294 296 298 299 299 299 299 298 298 297 296 295 295 296 296 295 294 294 294 294 294 295 297 298 300 301 302 303 304 305 306 306 307 309 310 311 312 312 313 313 313 312 311 308 305 302 298 294 291 289 287 285 283 281 281 280 280 278
278 276 275 275 275 276 276 275 273 272 269 268 267 267 268 269 271 273 275 277 280 283 285 286 288 289 291 294 296 297 297 297 296 296 295 295 295 294 294 294 295 295 295 296 296 296 295 294 295 295 296 297 299 300 301 302 302 304 305 306 307 308 310 310 311 312 313 313 313 313 313 311 309 306 303 299 295 293 290 290 288 287 285 284 285 285
276 275 274 273 274 274 273 271 269 267 265 265 265 265 267 269 271 274 276 279 283 286 288 290 291 292 294 294 295 295 294 293 292 292 293 293 293 293 294 295 296 296 297 298 297 296 295 294 294 294 295 297 298 299 299 300 301 302 303 304 306 308 309 309 310 312 312 312 312 313 313 313 312 309 306 302 299 296 294 292 292 291 290 289 289 288
275 273 272 272 272 271 269 268 267 265 265 264 264 266 268 272 275 278 280 283 286 288 290 291 292 292 293 292 291 289 287 287 288 289 291 292 294 295 297 298 298 298 298 298 297 295 295 294 293 293 294 296 297 298 298 299 300 301 302 304 307 308 308 309 310 311 311 311 312 313 314 314 313 311 308 305 302 300 298 297 295 294 293 293 293 292
274 273 272 272 270 268 267 266 266 266 265 265 266 268 272 276 279 282 284 286 288 290 291 291 291 290 290 290 288 286 283 285 288 292 295 297 299 300 301 301 300 299 298 296 295 294 294 293 293 293 295 296 296 296 296 297 299 301 303 305 306 306 305 307 310 312 312 313 314 315 315 315 314 311 308 306 304 302 302 300 299 298 297 296 296 295
275 274 274 272 270 268 266 265 265 266 266 267 269 272 275 278 281 284 286 288 289 290 291 291 290 289 288 288 286 285 285 287 291 297 300 303 304 304 304 303 301 299 296 294 293 292 292 292 292 294 295 295 294 294 295 297 300 302 304 306 306 306 305 307 309 312 313 314 315 316 316 316 314 312 309 307 306 305 304 303 302 301 300 300 299 298
278 277 276 274 273 271 269 268 267 267 267 268 270 273 276 279 282 284 286 288 289 290 290 289 289 288 289 289 289 288 289 290 293 298 302 305 306 305 304 302 300 297 294 292 292 291 291 291 292 294 296 296 295 295 295 298 300 303 305 306 306 306 306 307 309 311 313 314 315 316 316 316 314 312 309 308 307 306 304 303 303 302 302 302 301 300
280 279 278 277 276 274 272 270 268 268 267 268 270 273 276 279 282 284 286 287 288 289 288 287 287 288 290 292 294 296 296 296 297 299 302 304 305 304 303 301 299 296 293 291 290 290 290 292 293 295 297 297 296 296 297 299 301 302 304 306 306 306 306 307 309 311 313 314 315 315 316 315 313 311 309 309 307 306 305 304 303 302 302 302 302 301
283 282 280 279 277 275 272 270 269 268 268 269 270 272 276 280 282 284 286 287 288 288 288 289 290 291 293 296 299 301 303 304 304 305 306 307 307 306 305 303 300 298 295 294 293 293 293 294 295 296 296 296 296 297 299 301 302 302 304 305 305 306 307 308 310 312 312 313 314 314 314 313 311 309 309 308 307 305 305 304 303 302 302 302 302 301
284 282 280 278 276 274 271 270 269 269 270 270 271 273 277 280 282 284 286 287 289 290 292 294 295 296 298 300 303 305 306 307 308 308 309 310 311 310 309 307 305 303 302 302 302 302 302 301 300 299 298 297 296 298 301 303 304 304 304 304 304 305 306 308 310 311 311 312 312 312 311 309 308 307 306 305 304 303 304 304 303 302 301 301 302 302
282 280 278 276 274 272 270 269 269 269 271 273 274 275 278 280 283 284 286 288 290 293 295 298 300 301 301 303 306 307 308 308 309 310 311 313 314 314 313 312 311 312 313 313 312 312 310 308 305 303 301 299 298 298 300 303 305 306 304 303 303 304 304 306 308 309 310 309 309 308 307 306 305 303 302 300 300 301 302 302 302 301 301 301 302 302
278 277 275 273 271 270 269 268 269 270 272 275 277 278 280 281 284 286 288 290 293 295 298 299 302 303 304 305 306 307 307 308 309 310 312 314 315 316 316 316 318 321 322 319 317 316 314 311 308 305 302 300 299 299 299 301 304 305 304 303 303 303 303 303 305 307 308 307 306 305 304 303 301 300 298 297 297 297 298 299 300 300 301 301 302 302
Height
1490 1489 1489 1489 1489 1489 1489 1489 1490 1490 1491 1491 1491 1491 1492 1492 1493 1493 1494 1494 1495 1495 1496 1497 1498 1498 1498 1498 1498 1498 1498 1498 1498 1498 1498 1498 1498 1499 1499 1499 1499 1499 1499 1498 1498 1497 1497 1497 1497 1497 1498 1498 1499 1499 1498 1498 1497 1497 1496 1496 1495 1495 1495 1495 1494 1494 1494 1494 1494 1494 1494 1494 1494 1494 1494 1494 1494 1494 1494 1494 1494 1494 1494 1494 1494 1494
1489 1488 1488 1488 1488 1488 1488 1488 1489 1489 1490 1490 1491 1491 1491 1491 1492 1493 1493 1493 1494 1495 1496 1496 1496 1496 1496 1496 1496 1496 1496 1496 1497 1497 1497 1497 1497 1498 1498 1498 1498 1498 1498 1497 1497 1496 1496 1496 1496 1496 1497 1497 1498 1498 1497 1496 1496 1495 1494 1494 1494 1493 1493 1493 1493 1493 1493 1493 1493 1492 1492 1492 1492 1492 1492 1493 1493 1493 1493 1493 1493 1493 1493 1492 1492 1493
1488 1488 1488 1487 1487 1487 1487 1488 1488 1489 1489 1490 1490 1491 1491 1491 1492 1492 1493 1493 1494 1494 1494 1494 1494 1494 1494 1494 1494 1494 1495 1495 1495 1496 1496 1496 1496 1496 1497 1497 1497 1497 1496 1496 1496 1495 1495 1495 1495 1495 1495 1496 1496 1496 1495 1495 1494 1493 1493 1493 1492 1492 1492 1491 1491 1491 1491 1491 1491 1491 1491 1491 1491 1491 1491 1491 1491 1491 1491 1491 1491 1491 1491 1491 1491 1491
1488 1488 1487 1487 1487 1487 1487 1487 1488 1488 1489 1489 1490 1490 1490 1491 1491 1492 1492 1492 1492 1493 1493 1493 1493 1493 1493 1493 1493 1493 1493 1494 1494 1494 1494 1495 1495 1495 1496 1496 1496 1495 1495 1495 1494 1494 1494 1493 1493 1493 1494 1494 1494 1494 1493 1493 1493 1492 1492 1491 1491 1490 1490 1490 1490 1489 1489 1489 1489 1489 1489 1489 1489 1489 1490 1490 1490 1490 1490 1490 1490 1490 1490 1490 1490 1490
1487 1487 1487 1487 1487 1487 1487 1487 1488 1488 1488 1489 1489 1489 1490 1490 1490 1490 1490 1491 1491 1491 1491 1491 1491 1491 1491 1492 1492 1492 1493 1493 1493 1493 1493 1494 1494 1494 1494 1494 1494 1494 1494 1494 1493 1493 1493 1492 1492 1492 1492 1492 1492 1492 1492 1492 1491 1490 1490 1489 1489 1489 1488 1488 1488 1488 1488 1488 1488 1488 1488 1488 1488 1488 1488 1488 1488 1488 1488 1488 1488 1488 1488 1489 1489 1489
1487 1487 1487 1487 1487 1487 1487 1487 1487 1488 1488 1488 1488 1488 1489 1489 1489 1489 1489 1489 1489 1489 1489 1490 1490 1490 1490 1491 1491 1491 1492 1492 1492 1492 1492 1493 1493 1493 1493 1493 1493 1493 1493 1492 1492 1491 1491 1491 1491 1491 1491 1491 1491 1491 1490 1490 1489 1489 1488 1488 1488 1487 1487 1487 1487 1487 1487 1487 1487 1487 1487 1487 1487 1487 1487 1487 1487 1487 1487 1487 1487 1488 1488 1488 1488 1488
1487 1487 1487 1487 1487 1487 1487 1487 1487 1487 1487 1487 1487 1488 1488 1488 1488 1488 1488 1488 1488 1488 1489 1489 1489 1489 1489 1490 1490 1490 1490 1491 1491 1491 1491 1492 1492 1492 1492 1492 1492 1492 1491 1491 1490 1490 1490 1489 1489 1489 1489 1489 1489 1489 1488 1488 1488 1487 1487 1486 1486 1486 1486 1486 1486 1486 1486 1486 1486 1486 1486 1486 1486 1486 1486 1486 1486 1486 1486 1486 1486 1486 1486 1486 1486 1487
1486 1486 1487 1487 1487 1487 1487 1487 1487 1487 1487 1487 1487 1487 1487 1487 1487 1487 1488 1488 1488 1488 1488 1488 1488 1488 1489 1489 1489 1489 1489 1489 1490 1490 1490 1491 1491 1491 1491 1491 1490 1490 1490 1489 1489 1488 1488 1488 1488 1488 1487 1487 1487 1487 1487 1486 1486 1485 1485 1485 1485 1485 1485 1485 1485 1485 1485 1485 1485 1485 1485 1485 1485 1485 1485 1485 1485 1485 1485 1485 1485 1485 1485 1485 1485 1485
1486 1486 1486 1487 1487 1487 1487 1487 1487 1487 1487 1487 1487 1487 1487 1487 1487 1487 1487 1488 1488 1488 1488 1488 1488 1488 1488 1488 1488 1488 1488 1488 1489 1489 1489 1489 1490 1490 1489 1489 1489 1488 1488 1488 1487 1487 1487 1486 1486 1486 1486 1485 1485 1485 1485 1485 1484 1484 1484 1484 1484 1484 1484 1484 1483 1483 1483 1483 1483 1483 1484 1484 1484 1484 1484 1484 1484 1484 1484 1484 1484 1484 1484 1484 1484 1484
1485 1486 1486 1486 1486 1486 1487 1487 1486 1486 1487 1487 1487 1487 1487 1487 1487 1487 1487 1488 1488 1488 1488 1488 1488 1487 1487 1487 1487 1487 1488 1488 1488 1488 1488 1488 1488 1488 1488 1487 1487 1487 1486 1486 1486 1485 1485 1484 1484 1484 1484 1484 1484 1483 1483 1483 1483 1483 1483 1483 1483 1483 1483 1483 1483 1483 1483 1483 1483 1483 1483 1483 1483 1483 1483 1483 1482 1482 1482 1482 1482 1482 1483 1483 1483 1483
1485 1486 1486 1486 1486 1486 1486 1486 1487 1487 1487 1487 1487 1487 1487 1487 1487 1487 1487 1487 1487 1487 1487 1486 1486 1486 1486 1486 1486 1487 1487 1487 1487 1487 1487 1487 1487 1487 1486 1486 1485 1485 1484 1484 1484 1483 1483 1483 1483 1483 1482 1482 1482 1482 1482 1482 1482 1482 1482 1482 1481 1481 1481 1481 1481 1481 1481 1481 1481 1481 1481 1481 1481 1481 1481 1481 1481 1481 1481 1481 1481 1481 1481 1481 1481 1481
1485 1486 1486 1486 1486 1486 1486 1486 1486 1486 1486 1486 1486 1486 1486 1486 1486 1486 1486 1486 1486 1486 1485 1485 1485 1485 1485 1485 1486 1486 1486 1486 1486 1486 1486 1486 1485 1485 1485 1484 1484 1483 1483 1482 1482 1482 1482 1481 1481 1481 1481 1481 1481 1481 1481 1481 1481 1480 1480 1480 1480 1480 1480 1480 1480 1480 1480 1480 1480 1480 1480 1480 1480 1480 1480 1480 1480 1480 1480 1480 1480 1480 1480 1480 1480 1480
1485 1486 1486 1486 1486 1486 1486 1486 1486 1486 1485 1486 1486 1486 1486 1485 1485 1485 1485 1485 1484 1485 1485 1485 1485 1485 1485 1485 1485 1485 1485 1485 1485 1485 1485 1484 1484 1484 1483 1483 1482 1482 1481 1481 1480 1480 1480 1480 1480 1480 1480 1480 1480 1480 1480 1479 1479 1479 1479 1479 1479 1479 1479 1478 1478 1478 1478 1478 1478 1478 1478 1478 1478 1478 1479 1478 1478 1478 1478 1478 1478 1478 1478 1478 1479 1479
1485 1485 1485 1485 1485 1485 1485 1485 1485 1485 1484 1484 1484 1484 1484 1484 1484 1484 1484 1484 1484 1484 1484 1484 1484 1484 1484 1484 1484 1484 1484 1484 1484 1483 1483 1483 1483 1483 1482 1482 1481 1480 1480 1479 1479 1479 1479 1478 1478 1478 1478 1478 1478 1478 1478 1478 1478 1478 1478 1478 1478 1478 1477 1477 1477 1477 1477 1477 1477 1477 1478 1478 1478 1478 1478 1478 1478 1478 1477 1477 1477 1477 1477 1477 1477 1477
1484 1484 1484 1484 1484 1484 1484 1484 1484 1484 1484 1484 1484 1484 1484 1483 1483 1483 1483 1483 1483 1484 1484 1484 1484 1483 1483 1483 1483 1483 1483 1483 1482 1482 1482 1482 1482 1481 1481 1480 1479 1478 1478 1478 1478 1478 1477 1477 1477 1477 1477 1477 1477 1477 1477 1477 1477 1477 1477 1476 1476 1476 1476 1476 1476 1476 1476 1476 1476 1476 1476 1476 1476 1476 1476 1476 1476 1476 1476 1476 1476 1476 1476 1476 1476 1476
1484 1484 1484 1484 1484 1484 1483 1483 1483 1483 1483 1483 1483 1483 1483 1483 1483 1483 1483 1483 1483 1483 1483 1483 1483 1483 1482 1482 1482 1482 1482 1482 1481 1480 1480 1480 1480 1480 1479 1478 1478 1477 1477 1477 1476 1476 1476 1476 1476 1476 1476 1476 1476 1476 1476 1476 1476 1475 1475 1475 1475 1475 1475 1475 1475 1475 1475 1475 1475 1475 1475 1475 1475 1475 1475 1475 1475 1474 1474 1474 1474 1474 1474 1474 1474 1474
1483 1483 1483 1483 1483 1483 1483 1483 1483 1483 1483 1483 1483 1483 1483 1483 1483 1483 1483 1483 1482 1482 1482 1482 1482 1482 1481 1481 1481 1481 1481 1480 1479 1478 1478 1478 1478 1478 1478 1477 1476 1476 1476 1475 1475 1475 1474 1474 1474 1474 1474 1475 1475 1475 1474 1474 1474 1474 1474 1474 1474 1474 1474 1474 1474 1474 1474 1474 1474 1474 1474 1474 1473 1473 1473 1473 1473 1473 1473 1472 1472 1472 1472 1472 1472 1472
1483 1483 1483 1483 1483 1483 1483 1483 1483 1483 1482 1482 1482 1482 1482 1482 1482 1482 1482 1482 1482 1482 1481 1481 1481 1481 1480 1480 1479 1479 1479 1479 1478 1477 1476 1476 1477 1477 1476 1475 1474 1474 1474 1474 1474 1473 1473 1473 1473 1473 1473 1473 1473 1473 1473 1473 1473 1473 1473 1473 1473 1473 1473 1473 1473 1473 1473 1473 1473 1472 1472 1472 1472 1472 1471 1471 1471 1471 1470 1470 1470 1470 1470 1470 1469 1469
1482 1482 1482 1482 1482 1482 1482 1482 1482 1482 1482 1482 1482 1482 1481 1481 1481 1481 1481 1481 1481 1480 1480 1480 1480 1479 1479 1479 1478 1478 1478 1478 1477 1475 1474 1474 1475 1475 1475 1474 1473 1473 1473 1473 1473 1473 1472 1472 1472 1472 1473 1473 1473 1473 1472 1472 1472 1472 1472 1472 1472 1472 1472 1472 1472 1472 1471 1471 1471 1471 1470 1470 1470 1469 1469 1469 1469 1468 1468 1468 1468 1468 1468 1468 1467 1467
1482 1482 1482 1482 1482 1481 1481 1481 1481 1481 1481 1481 1481 1481 1480 1480 1480 1480 1480 1480 1479 1479 1479 1479 1478 1478 1478 1478 1477 1477 1476 1476 1475 1474 1473 1473 1473 1474 1473 1473 1472 1472 1472 1472 1472 1471 1471 1471 1471 1471 1472 1472 1472 1471 1471 1471 1471 1471 1471 1471 1471 1471 1471 1471 1470 1470 1470 1469 1469 1469 1468 1468 1468 1468 1467 1467 1467 1467 1466 1466 1466 1466 1466 1465 1465 1465
1481 1481 1481 1481 1481 1481 1480 1480 1480 1480 1480 1480 1480 1479 1479 1479 1479 1479 1478 1478 1478 1478 1478 1478 1477 1477 1476 1476 1476 1475 1475 1474 1473 1472 1471 1471 1472 1472 1472 1472 1471 1471 1471 1471 1471 1470 1470 1470 1470 1470 1470 1471 1471 1470 1470 1470 1470 1470 1470 1470 1470 1470 1469 1469 1469 1468 1468 1468 1467 1467 1467 1466 1466 1466 1465 1465 1465 1465 1464 1464 1464 1463 1463 1463 1463 1463
1480 1480 1480 1480 1480 1480 1479 1479 1479 1479 1478 1478 1478 1478 1478 1478 1478 1477 1477 1477 1477 1477 1476 1476 1475 1475 1475 1475 1474 1474 1474 1473 1472 1471 1470 1470 1470 1471 1471 1470 1470 1470 1470 1470 1470 1469 1469 1469 1469 1469 1470 1470 1469 1469 1469 1469 1469 1469 1469 1469 1468 1468 1468 1468 1467 1467 1466 1466 1465 1465 1465 1464 1464 1464 1463 1463 1463 1463 1462 1462 1462 1462 1461 1461 1461 1460
1478 1478 1478 1478 1478 1478 1478 1477 1477 1477 1477 1477 1477 1476 1476 1476 1476 1476 1475 1475 1475 1475 1474 1474 1473 1473 1473 1473 1473 1473 1473 1472 1471 1470 1469 1468 1468 1469 1470 1469 1469 1468 1468 1469 1468 1468 1468 1468 1468 1469 1469 1469 1468 1468 1468 1468 1468 1468 1468 1468 1467 1467 1466 1466 1465 1465 1464 1464 1464 1463 1463 1463 1463 1462 1462 1461 1461 1461 1460 1460 1459 1459 1459 1458 1458 1458
1477 1477 1477 1477 1477 1476 1476 1476 1476 1476 1475 1475 1475 1475 1475 1474 1474 1474 1474 1474 1473 1473 1473 1472 1472 1472 1472 1472 1472 1472 1471 1470 1470 1469 1468 1467 1467 1468 1468 1468 1468 1468 1468 1468 1467 1467 1467 1468 1468 1468 1468 1468 1468 1467 1467 1467 1467 1467 1466 1466 1466 1465 1465 1464 1464 1463 1463 1463 1462 1462 1461 1461 1460 1460 1460 1459 1459 1458 1458 1458 1457 1457 1457 1456 1456 1456
1476 1476 1476 1476 1476 1476 1475 1475 1475 1474 1474 1474 1474 1473 1473 1473 1473 1473 1472 1472 1472 1472 1471 1471 1470 1470 1470 1470 1470 1470 1470 1469 1468 1468 1467 1466 1466 1467 1467 1467 1467 1466 1466 1466 1466 1466 1466 1467 1467 1467 1467 1467 1466 1466 1466 1466 1466 1465 1465 1465 1464 1464 1463 1463 1462 1462 1461 1461 1460 1460 1459 1459 1458 1458 1458 1457 1457 1456 1456 1455 1455 1455 1454 1454 1453 1453
1476 1476 1475 1475 1475 1475 1474 1474 1474 1473 1473 1473 1473 1472 1472 1471 1471 1471 1471 1470 1470 1470 1470 1469 1469 1469 1469 1469 1469 1469 1469 1468 1468 1467 1466 1466 1465 1465 1466 1466 1465 1465 1465 1465 1465 1465 1465 1466 1466 1466 1466 1465 1465 1465 1465 1464 1464 1464 1464 1463 1463 1462 1462 1461 1461 1460 1460 1459 1458 1458 1458 1457 1456 1456 1455 1455 1454 1454 1453 1453 1453 1452 1452 1451 1451 1450
1475 1474 1474 1474 1474 1473 1473 1473 1473 1473 1472 1472 1472 1471 1471 1470 1470 1469 1469 1469 1469 1469 1468 1468 1468 1468 1468 1468 1468 1468 1468 1468 1467 1466 1466 1465 1464 1464 1464 1464 1464 1464 1464 1464 1464 1464 1464 1464 1465 1465 1465 1464 1464 1463 1463 1463 1463 1463 1462 1462 1461 1461 1460 1459 1459 1458 1458 1457 1457 1456 1455 1455 1454 1453 1453 1453 1452 1452 1451 1451 1450 1450 1449 1448 1448 1448
1473 1473 1473 1473 1473 1472 1472 1472 1472 1472 1472 1471 1471 1471 1470 1469 1468 1468 1468 1468 1468 1468 1468 1467 1467 1467 1466 1466 1466 1466 1467 1467 1466 1465 1465 1464 1463 1463 1463 1463 1463 1463 1463 1462 1463 1463 1463 1463 1463 1463 1463 1463 1463 1462 1462 1462 1462 1461 1461 1460 1459 1459 1458 1458 1457 1456 1456 1455 1454 1454 1453 1453 1452 1451 1451 1450 1450 1449 1449 1448 1448 1447 1447 1446 1445 1445
1472 1472 1472 1472 1471 1471 1471 1471 1471 1471 1470 1470 1470 1470 1468 1468 1468 1468 1468 1468 1467 1467 1467 1466 1466 1466 1466 1465 1465 1465 1466 1466 1465 1464 1464 1463 1463 1462 1462 1462 1462 1462 1461 1461 1461 1461 1462 1462 1462 1462 1462 1461 1461 1461 1461 1460 1460 1459 1459 1458 1458 1457 1456 1456 1455 1454 1454 1453 1453 1452 1451 1450 1450 1449 1448 1448 1447 1447 1447 1446 1446 1445 1444 1443 1443 1442
1471 1471 1471 1470 1470 1470 1469 1469 1469 1469 1469 1469 1469 1468 1468 1467 1467 1467 1467 1467 1467 1466 1466 1466 1466 1465 1465 1464 1464 1464 1464 1464 1464 1464 1463 1463 1462 1461 1461 1461 1461 1461 1460 1459 1459 1458 1459 1460 1460 1460 1460 1460 1460 1459 1459 1458 1458 1458 1457 1456 1456 1455 1454 1454 1453 1453 1452 1451 1450 1450 1449 1448 1448 1447 1446 1446 1445 1445 1444 1444 1443 1443 1442 1441 1440 1439
1470 1470 1469 1469 1469 1468 1468 1468 1468 1468 1468 1468 1467 1467 1467 1467 1466 1466 1466 1466 1465 1465 1465 1465 1465 1465 1464 1464 1463 1463 1463 1463 1464 1463 1463 1462 1461 1460 1460 1460 1460 1460 1459 1459 1458 1457 1456 1457 1458 1458 1458 1458 1458 1458 1457 1457 1456 1456 1455 1454 1454 1453 1453 1452 1451 1450 1450 1449 1448 1448 1447 1446 1445 1445 1444 1443 1443 1443 1442 1442 1441 1440 1439 1438 1438 1437
1469 1468 1468 1468 1468 1467 1467 1467 1467 1467 1466 1466 1466 1466 1466 1465 1465 1465 1465 1465 1465 1464 1464 1464 1464 1464 1464 1463 1463 1462 1462 1463 1463 1463 1462 1461 1460 1459 1459 1459 1459 1459 1458 1458 1458 1457 1456 1454 1454 1455 1456 1456 1456 1456 1455 1455 1454 1453 1453 1452 1452 1451 1451 1450 1449 1448 1448 1447 1446 1446 1445 1444 1443 1443 1442 1441 1441 1440 1440 1439 1439 1438 1437 1436 1435 1434
1468 1467 1467 1467 1467 1466 1466 1466 1466 1465 1465 1465 1465 1465 1464 1464 1464 1464 1464 1464 1464 1463 1463 1463 1463 1463 1463 1462 1462 1461 1462 1462 1462 1462 1461 1460 1459 1459 1458 1458 1458 1458 1457 1457 1457 1456 1455 1453 1453 1453 1453 1454 1454 1454 1453 1453 1452 1451 1451 1450 1449 1449 1448 1448 1447 1446 1445 1445 1444 1443 1443 1442 1441 1440 1440 1439 1438 1438 1438 1437 1437 1436 1435 1434 1433 1432
1467 1466 1466 1466 1465 1465 1465 1465 1464 1464 1464 1464 1464 1464 1463 1463 1463 1463 1463 1463 1463 1463 1463 1462 1462 1462 1462 1461 1461 1460 1460 1461 1461 1461 1460 1459 1458 1458 1458 1457 1457 1457 1456 1455 1455 1454 1453 1452 1451 1450 1450 1451 1451 1451 1451 1451 1450 1449 1448 1448 1447 1447 1446 1446 1445 1444 1443 1443 1442 1441 1440 1440 1439 1438 1438 1437 1436 1436 1435 1435 1434 1434 1433 1432 1431 1430
1465 1465 1465 1464 1464 1464 1464 1463 1463 1463 1463 1463 1463 1463 1463 1463 1462 1462 1462 1462 1462 1462 1462 1461 1461 1461 1461 1460 1459 1459 1459 1460 1460 1460 1459 1458 1458 1457 1456 1456 1456 1455 1455 1454 1453 1453 1451 1450 1449 1449 1448 1447 1447 1448 1448 1448 1448 1447 1446 1446 1445 1444 1444 1443 1443 1442 1441 1440 1439 1438 1438 1437 1436 1435 1435 1434 1434 1433 1433 1433 1432 1431 1431 1430 1429 1428
1464 1464 1463 1463 1463 1463 1463 1463 1463 1462 1462 1462 1462 1462 1462 1462 1462 1461 1461 1461 1461 1461 1461 1460 1460 1460 1460 1459 1459 1458 1458 1459 1459 1459 1458 1458 1457 1456 1455 1454 1454 1454 1453 1453 1452 1451 1450 1448 1448 1447 1446 1444 1443 1444 1444 1445 1445 1444 1443 1443 1443 1442 1442 1441 1441 1440 1439 1438 1437 1436 1435 1434 1433 1433 1432 1431 1431 1430 1430 1430 1429 1429 1428 1428 1427 1426
1463 1463 1463 1462 1462 1462 1462 1462 1462 1461 1461 1461 1461 1461 1461 1461 1461 1461 1461 1460 1460 1460 1460 1460 1459 1459 1458 1458 1458 1458 1457 1457 1457 1457 1457 1456 1455 1455 1454 1453 1453 1453 1452 1451 1451 1450 1448 1447 1446 1445 1444 1443 1442 1441 1441 1441 1441 1441 1440 1440 1439 1439 1439 1438 1438 1437 1436 1435 1434 1433 1433 1432 1431 1430 1429 1429 1428 1428 1427 1427 1427 1426 1426 1425 1425 1424
1462 1461 1461 1461 1461 1461 1461 1461 1460 1460 1460 1460 1460 1460 1460 1460 1460 1460 1460 1460 1459 1459 1459 1459 1458 1458 1458 1457 1457 1456 1456 1456 1456 1455 1455 1454 1454 1453 1453 1452 1452 1452 1451 1450 1449 1448 1447 1446 1444 1443 1442 1441 1440 1439 1439 1438 1438 1437 1437 1437 1436 1436 1435 1435 1434 1434 1433 1432 1432 1431 1430 1429 1428 1428 1427 1426 1426 1425 1425 1424 1424 1424 1423 1423 1422 1422
1460 1460 1460 1460 1460 1460 1460 1459 1459 1459 1459 1459 1459 1459 1459 1459 1459 1459 1459 1459 1459 1458 1458 1458 1458 1457 1457 1457 1456 1455 1455 1454 1454 1454 1453 1453 1453 1452 1452 1451 1450 1450 1449 1449 1448 1447 1446 1445 1443 1442 1441 1439 1438 1438 1437 1437 1436 1435 1434 1433 1433 1433 1432 1432 1431 1431 1430 1429 1429 1428 1427 1427 1426 1425 1425 1424 1423 1423 1422 1422 1422 1421 1421 1420 1419 1419
1459 1459 1459 1459 1459 1459 1459 1458 1458 1458 1458 1458 1458 1458 1458 1458 1458 1458 1458 1458 1458 1458 1457 1457 1457 1456 1456 1456 1455 1455 1454 1454 1453 1453 1453 1452 1452 1451 1450 1450 1449 1448 1448 1447 1447 1446 1445 1443 1442 1441 1440 1438 1437 1436 1435 1434 1434 1433 1432 1431 1430 1429 1430 1430 1429 1428 1428 1427 1426 1425 1425 1424 1424 1423 1423 1422 1421 1421 1420 1420 1419 1419 1418 1418 1417 1416
1458 1458 1458 1458 1458 1458 1458 1458 1458 1458 1458 1458 1458 1458 1458 1458 1457 1457 1457 1457 1457 1457 1456 1456 1455 1455 1455 1454 1454 1454 1453 1453 1453 1452 1452 1451 1451 1450 1449 1449 1448 1447 1447 1446 1445 1444 1443 1442 1441 1440 1439 1438 1436 1435 1433 1433 1432 1432 1431 1430 1428 1427 1427 1427 1427 1426 1425 1424 1424 1423 1423 1422 1421 1421 1420 1420 1419 1419 1418 1418 1417 1417 1416 1415 1414 1413
1458 1457 1457 1457 1457 1457 1457 1457 1457 1457 1457 1457 1457 1457 1457 1457 1456 1456 1456 1456 1456 1456 1455 1455 1454 1454 1453 1453 1453 1453 1453 1452 1452 1452 1451 1451 1450 1449 1448 1448 1447 1446 1445 1444 1443 1442 1442 1441 1440 1439 1438 1437 1435 1434 1432 1431 1430 1430 1430 1428 1427 1426 1425 1424 1425 1425 1424 1423 1422 1422 1421 1420 1419 1418 1418 1417 1417 1416 1416 1415 1415 1414 1413 1413 1412 1411
1457 1456 1456 1456 1456 1456 1456 1456 1456 1456 1456 1456 1456 1456 1456 1456 1455 1455 1455 1455 1455 1454 1454 1453 1453 1453 1452 1453 1453 1453 1452 1452 1451 1451 1450 1450 1449 1448 1447 1446 1445 1444 1443 1443 1442 1441 1440 1439 1438 1437 1436 1436 1435 1433 1430 1429 1428 1428 1428 1427 1426 1425 1423 1422 1422 1423 1422 1421 1420 1420 1419 1418 1417 1416 1415 1415 1414 1413 1413 1413 1412 1411 1411 1410 1409 1408
1456 1455 1455 1455 1455 1455 1455 1455 1455 1455 1455 1455 1455 1455 1455 1455 1454 1454 1454 1454 1453 1453 1453 1453 1452 1452 1451 1451 1452 1452 1452 1451 1451 1450 1449 1448 1448 1447 1446 1445 1444 1443 1442 1441 1440 1439 1438 1438 1437 1436 1435 1434 1433 1431 1429 1428 1427 1426 1426 1426 1425 1424 1422 1421 1420 1420 1420 1419 1419 1418 1418 1417 1415 1414 1413 1412 1411 1411 1410 1409 1409 1408 1408 1407 1406 1405
1455 1455 1454 1454 1454 1454 1454 1454 1454 1454 1454 1454 1454 1454 1454 1454 1453 1453 1453 1453 1453 1452 1452 1451 1451 1451 1450 1450 1450 1450 1450 1450 1450 1449 1448 1447 1446 1446 1445 1444 1443 1442 1441 1440 1439 1438 1437 1436 1435 1434 1433 1433 1431 1429 1428 1427 1425 1424 1424 1424 1423 1422 1421 1420 1419 1418 1418 1417 1417 1416 1416 1415 1413 1412 1411 1409 1408 1408 1407 1407 1406 1405 1404 1404 1403 1403
1454 1454 1454 1453 1453 1453 1453 1453 1453 1453 1453 1453 1453 1453 1453 1453 1453 1452 1452 1452 1451 1451 1451 1450 1450 1449 1449 1449 1449 1449 1449 1448 1448 1448 1447 1446 1445 1444 1443 1443 1442 1441 1439 1438 1437 1436 1435 1434 1433 1433 1432 1430 1429 1427 1426 1425 1424 1423 1422 1422 1421 1420 1419 1418 1418 1417 1417 1416 1415 1414 1414 1413 1412 1410 1409 1407 1406 1405 1404 1404 1403 1402 1401 1401 1400 1399
1453 1453 1453 1453 1453 1453 1453 1453 1453 1453 1453 1453 1453 1452 1452 1452 1452 1451 1451 1451 1450 1450 1449 1449 1449 1448 1448 1448 1447 1447 1447 1447 1446 1446 1446 1445 1444 1443 1443 1441 1440 1439 1438 1437 1436 1434 1433 1433 1432 1431 1430 1429 1427 1425 1424 1424 1423 1422 1421 1420 1419 1418 1417 1416 1416 1416 1415 1414 1413 1413 1412 1411 1410 1408 1407 1405 1403 1402 1401 1401 1400 1400 1399 1398 1398 1397
1452 1452 1452 1452 1452 1452 1452 1452 1452 1452 1452 1452 1452 1451 1451 1451 1450 1450 1450 1449 1449 1449 1448 1448 1447 1447 1446 1446 1446 1445 1445 1444 1444 1444 1444 1443 1443 1442 1441 1440 1439 1438 1436 1435 1434 1433 1432 1431 1430 1429 1429 1428 1426 1423 1422 1422 1422 1421 1420 1418 1418 1417 1415 1414 1414 1414 1413 1412 1412 1411 1410 1409 1408 1407 1405 1403 1401 1399 1398 1398 1397 1397 1397 1396 1395 1394
1451 1451 1451 1451 1451 1451 1451 1451 1451 1450 1450 1450 1450 1450 1450 1450 1449 1449 1449 1448 1448 1447 1447 1446 1446 1445 1445 1444 1444 1443 1443 1442 1442 1442 1441 1441 1440 1439 1438 1438 1436 1435 1434 1433 1432 1431 1429 1428 1428 1427 1427 1426 1424 1423 1421 1420 1419 1419 1418 1417 1416 1415 1413 1413 1412 1412 1411 1410 1410 1409 1408 1408 1407 1405 1404 1402 1399 1397 1395 1394 1394 1393 1394 1393 1393 1392
1450 1450 1450 1450 1450 1450 1450 1450 1449 1449 1449 1449 1449 1449 1449 1448 1448 1448 1448 1447 1447 1446 1445 1445 1444 1443 1443 1443 1442 1442 1441 1441 1440 1439 1439 1438 1438 1437 1436 1435 1434 1433 1432 1430 1429 1428 1427 1426 1425 1424 1424 1424 1423 1422 1420 1418 1418 1417 1416 1415 1414 1413 1413 1411 1410 1410 1410 1409 1408 1407 1406 1405 1404 1404 1403 1401 1398 1395 1393 1391 1390 1390 1391 1391 1390 1390
1449 1449 1449 1449 1449 1448 1448 1448 1448 1448 1448 1448 1448 1448 1448 1447 1447 1447 1446 1446 1445 1444 1444 1443 1443 1442 1441 1441 1440 1440 1439 1439 1438 1438 1437 1436 1436 1435 1434 1433 1432 1431 1430 1429 1428 1427 1426 1424 1423 1422 1421 1422 1422 1421 1420 1418 1417 1416 1414 1413 1413 1412 1411 1410 1408 1408 1408 1407 1406 1405 1404 1403 1402 1401 1401 1399 1397 1394 1391 1388 1387 1387 1388 1388 1388 1387